When you browse on this site, cookies collect data to enhance your experience and personalize the content and advertising you see.
Visit our Privacy Policy to learn more. By continuing to use the site, you agree to this use of cookies and data.
  • In Austria
  • List of Countries
  • For 7 days
  • Water Temperature
  • Weather Map
  • News
  • Weather Widgets
  • user-avatar
    Login

    Hourly Weather Bregenz

    Today, 5 June, Friday

    Time Temperature Precipitation Wind Pressure Humidity
    00:00 +7°C° 0.4 mm 1 mps 635 mmHg 93%
    01:00 +6°C° 0.4 mm 1 mps 635 mmHg 93%
    02:00 +6°C° 0.7 mm 1 mps 635 mmHg 94%
    03:00 +6°C° 0.7 mm 1 mps 635 mmHg 96%
    04:00 +6°C° 0.7 mm 1 mps 634 mmHg 97%
    05:00 +6°C° 0.9 mm 1 mps 635 mmHg 96%
    06:00 +6°C° 0.9 mm 1 mps 635 mmHg 95%
    07:00 +6°C° 0.9 mm 1 mps 635 mmHg 95%
    08:00 +6°C° 0.5 mm 2 mps 635 mmHg 92%
    09:00 +6°C° 0.5 mm 2 mps 636 mmHg 90%
    10:00 +7°C° 0.5 mm 2 mps 636 mmHg 88%
    11:00 +8°C° 0.3 mm 2 mps 636 mmHg 84%
    12:00 +8°C° 0.3 mm 2 mps 636 mmHg 81%
    13:00 +9°C° 0.3 mm 2 mps 636 mmHg 77%
    14:00 +10°C° 0.1 mm 3 mps 637 mmHg 73%
    15:00 +10°C° 0.1 mm 3 mps 637 mmHg 70%
    16:00 +11°C° 0.1 mm 3 mps 637 mmHg 66%
    17:00 +10°C° 0.3 mm 3 mps 637 mmHg 73%
    18:00 +9°C° 0.3 mm 2 mps 637 mmHg 81%
    19:00 +7°C° 0.3 mm 2 mps 637 mmHg 89%
    20:00 +7°C° 0.1 mm 2 mps 637 mmHg 89%
    21:00 +7°C° 0.1 mm 2 mps 638 mmHg 90%
    22:00 +7°C° 0.1 mm 2 mps 638 mmHg 90%
    23:00 +7°C° 0.3 mm 2 mps 638 mmHg 91%

    Tomorrow, 6 June, Saturday

    Time Temperature Precipitation Wind Pressure Humidity
    00:00 +8°C° 0.3 mm 1 mps 638 mmHg 92%
    01:00 +8°C° 0.3 mm 1 mps 638 mmHg 93%
    02:00 +7°C° 0.1 mm 1 mps 638 mmHg 92%
    03:00 +7°C° 0.1 mm 1 mps 638 mmHg 92%
    04:00 +5°C° 0.1 mm 2 mps 638 mmHg 91%
    05:00 +7°C° 0 mm 1 mps 638 mmHg 90%
    06:00 +8°C° 0 mm 1 mps 639 mmHg 89%
    07:00 +9°C° 0 mm 1 mps 639 mmHg 87%
    08:00 +9°C° 0 mm 2 mps 640 mmHg 82%
    09:00 +12°C° 0 mm 2 mps 640 mmHg 76%
    10:00 +12°C° 0 mm 3 mps 641 mmHg 70%
    11:00 +12°C° 0.5 mm 3 mps 641 mmHg 72%
    12:00 +13°C° 0.5 mm 3 mps 640 mmHg 73%
    13:00 +13°C° 0.5 mm 3 mps 640 mmHg 74%
    14:00 +13°C° 0.9 mm 3 mps 640 mmHg 79%
    15:00 +12°C° 0.9 mm 3 mps 640 mmHg 83%
    16:00 +12°C° 0.9 mm 2 mps 640 mmHg 87%
    17:00 +12°C° 0.9 mm 2 mps 640 mmHg 89%
    18:00 +10°C° 0.9 mm 2 mps 639 mmHg 91%
    19:00 +10°C° 0.9 mm 1 mps 639 mmHg 93%
    20:00 +9°C° 1.4 mm 1 mps 639 mmHg 94%
    21:00 +9°C° 1.4 mm 1 mps 640 mmHg 96%
    22:00 +9°C° 1.4 mm 1 mps 640 mmHg 97%
    23:00 +8°C° 1 mm 1 mps 640 mmHg 97%

    Day after tomorrow, 7 June, Sunday

    Time Temperature Precipitation Wind Pressure Humidity
    00:00 +8°C° 1 mm 1 mps 640 mmHg 98%
    01:00 +8°C° 1 mm 1 mps 640 mmHg 98%
    02:00 +8°C° 2 mm 1 mps 640 mmHg 98%
    03:00 +7°C° 2 mm 1 mps 640 mmHg 98%
    04:00 +6°C° 2 mm 2 mps 640 mmHg 98%
    05:00 +6°C° 1.7 mm 2 mps 640 mmHg 98%
    06:00 +6°C° 1.7 mm 1 mps 640 mmHg 98%
    07:00 +6°C° 1.7 mm 1 mps 640 mmHg 97%
    08:00 +6°C° 0.7 mm 1 mps 640 mmHg 97%
    09:00 +6°C° 0.7 mm 1 mps 640 mmHg 97%
    10:00 +5°C° 0.7 mm 0 mps 641 mmHg 96%
    11:00 +6°C° 0.3 mm 0 mps 641 mmHg 95%
    12:00 +6°C° 0.3 mm 0 mps 641 mmHg 94%
    13:00 +6°C° 0.3 mm 0 mps 641 mmHg 93%
    14:00 +6°C° 0.4 mm 0 mps 641 mmHg 94%
    15:00 +6°C° 0.4 mm 0 mps 641 mmHg 95%
    16:00 +6°C° 0.4 mm 0 mps 641 mmHg 95%
    17:00 +6°C° 0.2 mm 0 mps 641 mmHg 96%
    18:00 +7°C° 0.2 mm 1 mps 641 mmHg 96%
    19:00 +7°C° 0.2 mm 1 mps 641 mmHg 96%
    20:00 +7°C° 0.1 mm 1 mps 641 mmHg 96%
    21:00 +6°C° 0.1 mm 1 mps 641 mmHg 95%
    22:00 +5°C° 0.1 mm 0 mps 641 mmHg 95%
    23:00 +5°C° 0.1 mm 0 mps 641 mmHg 95%

    8 June, Monday

    Time Temperature Precipitation Wind Pressure Humidity
    00:00 +5°C° 0.1 mm 0 mps 641 mmHg 95%
    01:00 +5°C° 0.1 mm 0 mps 641 mmHg 96%
    02:00 +4°C° 0 mm 0 mps 641 mmHg 96%
    03:00 +4°C° 0 mm 0 mps 641 mmHg 96%
    04:00 +4°C° 0 mm 0 mps 640 mmHg 97%
    05:00 +5°C° 0.1 mm 0 mps 641 mmHg 97%
    06:00 +5°C° 0.1 mm 0 mps 641 mmHg 97%
    07:00 +5°C° 0.1 mm 0 mps 641 mmHg 97%
    08:00 +6°C° 0.9 mm 1 mps 641 mmHg 97%
    09:00 +6°C° 0.9 mm 1 mps 641 mmHg 97%
    10:00 +7°C° 0.9 mm 1 mps 641 mmHg 97%
    11:00 +7°C° 0.6 mm 1 mps 641 mmHg 97%
    12:00 +7°C° 0.6 mm 1 mps 641 mmHg 97%
    13:00 +7°C° 0.6 mm 1 mps 641 mmHg 97%
    14:00 +7°C° 1 mm 1 mps 641 mmHg 97%
    15:00 +7°C° 1 mm 1 mps 641 mmHg 97%
    16:00 +6°C° 1 mm 0 mps 641 mmHg 97%
    17:00 +6°C° 0.5 mm 0 mps 641 mmHg 97%
    18:00 +6°C° 0.5 mm 0 mps 642 mmHg 97%
    19:00 +6°C° 0.5 mm 0 mps 642 mmHg 97%
    20:00 +6°C° 0.1 mm 0 mps 642 mmHg 97%
    21:00 +5°C° 0.1 mm 0 mps 642 mmHg 97%
    22:00 +5°C° 0.1 mm 0 mps 642 mmHg 97%
    23:00 +5°C° 0 mm 0 mps 642 mmHg 97%

    9 June, Tuesday

    Time Temperature Precipitation Wind Pressure Humidity
    00:00 +5°C° 0 mm 0 mps 642 mmHg 96%
    01:00 +4°C° 0 mm 0 mps 642 mmHg 96%
    02:00 +5°C° 0.1 mm 0 mps 642 mmHg 97%
    03:00 +5°C° 0.1 mm 0 mps 642 mmHg 97%
    04:00 +5°C° 0.1 mm 0 mps 642 mmHg 98%
    05:00 +5°C° 0.8 mm 0 mps 642 mmHg 98%
    06:00 +5°C° 0.8 mm 0 mps 642 mmHg 98%
    07:00 +5°C° 0.8 mm 0 mps 642 mmHg 98%
    08:00 +6°C° 0.2 mm 0 mps 643 mmHg 97%
    09:00 +7°C° 0.2 mm 1 mps 643 mmHg 97%
    10:00 +7°C° 0.2 mm 1 mps 643 mmHg 97%
    11:00 +7°C° 0.1 mm 1 mps 643 mmHg 96%
    12:00 +8°C° 0.1 mm 1 mps 643 mmHg 96%
    13:00 +8°C° 0.1 mm 1 mps 643 mmHg 96%
    14:00 +9°C° 0.2 mm 1 mps 643 mmHg 94%
    15:00 +9°C° 0.2 mm 1 mps 643 mmHg 92%
    16:00 +10°C° 0.2 mm 1 mps 643 mmHg 90%
    17:00 +9°C° 0.2 mm 1 mps 644 mmHg 92%
    18:00 +9°C° 0.2 mm 1 mps 644 mmHg 93%
    19:00 +9°C° 0.2 mm 1 mps 644 mmHg 95%
    20:00 +8°C° 0.1 mm 1 mps 644 mmHg 95%
    21:00 +8°C° 0.1 mm 1 mps 644 mmHg 96%
    22:00 +7°C° 0.1 mm 1 mps 644 mmHg 97%
    23:00 +7°C° 0.2 mm 1 mps 644 mmHg 97%

    10 June, Wednesday

    Time Temperature Precipitation Wind Pressure Humidity
    00:00 +7°C° 0.2 mm 1 mps 644 mmHg 97%
    01:00 +7°C° 0.2 mm 1 mps 644 mmHg 97%
    02:00 +6°C° 0.4 mm 0 mps 644 mmHg 98%
    03:00 +6°C° 0.4 mm 0 mps 644 mmHg 98%
    04:00 +6°C° 0.4 mm 0 mps 644 mmHg 98%
    05:00 +6°C° 0.6 mm 0 mps 644 mmHg 98%
    06:00 +6°C° 0.6 mm 0 mps 645 mmHg 98%
    07:00 +6°C° 0.6 mm 0 mps 645 mmHg 98%
    08:00 +8°C° 0.7 mm 1 mps 645 mmHg 97%
    09:00 +8°C° 0.7 mm 1 mps 645 mmHg 97%
    10:00 +8°C° 0.7 mm 1 mps 645 mmHg 97%
    11:00 +8°C° 0.4 mm 1 mps 645 mmHg 95%
    12:00 +9°C° 0.4 mm 1 mps 645 mmHg 94%
    13:00 +9°C° 0.4 mm 1 mps 646 mmHg 92%
    14:00 +10°C° 0.5 mm 1 mps 646 mmHg 91%
    15:00 +10°C° 0.5 mm 1 mps 646 mmHg 89%
    16:00 +11°C° 0.5 mm 1 mps 646 mmHg 88%
    17:00 +11°C° 0.4 mm 1 mps 646 mmHg 89%
    18:00 +10°C° 0.4 mm 1 mps 646 mmHg 91%
    19:00 +10°C° 0.4 mm 1 mps 646 mmHg 93%
    20:00 +9°C° 0.1 mm 1 mps 646 mmHg 94%
    21:00 +7°C° 0.1 mm 0 mps 646 mmHg 95%
    22:00 +5°C° 0.1 mm 0 mps 646 mmHg 96%
    23:00 +5°C° 0 mm 0 mps 646 mmHg 96%
    Show more